owner,sensor,date,latitude,longitude,vertical_datum,wind_speed,wind_to_direction,wind_speed_of_gust,qcFlag 
DISL,ioos:station:DISL:CATA:1,2011-12-01T00:00:00Z,30.3085,-88.1395,0.0,2.91,357.3,-9999.0,'1111122,1111122,1111122' 
DISL,ioos:station:DISL:CATA:1,2011-12-01T00:30:00Z,30.3085,-88.1395,0.0,2.4,350.0,-9999.0,'1111122,1111122,1111122' 
DISL,ioos:station:DISL:CATA:1,2011-12-01T01:00:00Z,30.3085,-88.1395,0.0,3.0,355.9,-9999.0,'1111122,1111122,1111122' 
DISL,ioos:station:DISL:CATA:1,2011-12-01T01:30:00Z,30.3085,-88.1395,0.0,3.58,0.565,-9999.0,'1111122,1111122,1111122' 
DISL,ioos:station:DISL:CATA:1,2011-12-01T02:00:00Z,30.3085,-88.1395,0.0,3.02,352.8,-9999.0,'1111122,1111122,1111122' 
DISL,ioos:station:DISL:CATA:1,2011-12-01T02:30:00Z,30.3085,-88.1395,0.0,3.81,9.56,-9999.0,'1111122,1111122,1111122' 
DISL,ioos:station:DISL:CATA:1,2011-12-01T03:00:00Z,30.3085,-88.1395,0.0,3.26,359.1,-9999.0,'1111122,1111122,1111122' 
DISL,ioos:station:DISL:CATA:1,2011-12-01T03:30:00Z,30.3085,-88.1395,0.0,3.12,3.079,-9999.0,'1111122,1111122,1111122' 
DISL,ioos:station:DISL:CATA:1,2011-12-01T04:00:00Z,30.3085,-88.1395,0.0,3.43,3.8,-9999.0,'1111122,1111122,1111122' 
DISL,ioos:station:DISL:CATA:1,2011-12-01T04:30:00Z,30.3085,-88.1395,0.0,3.41,359.6,-9999.0,'1111122,1111122,1111122' 
DISL,ioos:station:DISL:CATA:1,2011-12-01T05:00:00Z,30.3085,-88.1395,0.0,3.41,4.707,-9999.0,'1111122,1111122,1111122' 
DISL,ioos:station:DISL:CATA:1,2011-12-01T05:30:00Z,30.3085,-88.1395,0.0,3.68,2.795,-9999.0,'1111122,1111122,1111122' 
DISL,ioos:station:DISL:CATA:1,2011-12-01T06:00:00Z,30.3085,-88.1395,0.0,4.11,14.53,-9999.0,'1111122,1111122,1111122' 
DISL,ioos:station:DISL:CATA:1,2011-12-01T06:30:00Z,30.3085,-88.1395,0.0,3.26,9.72,-9999.0,'1111122,1111122,1111122' 
DISL,ioos:station:DISL:CATA:1,2011-12-01T07:00:00Z,30.3085,-88.1395,0.0,3.1,9.99,-9999.0,'1111122,1111122,1111122' 
DISL,ioos:station:DISL:CATA:1,2011-12-01T07:30:00Z,30.3085,-88.1395,0.0,2.86,347.6,-9999.0,'1111122,1111122,1111122' 
DISL,ioos:station:DISL:CATA:1,2011-12-01T08:00:00Z,30.3085,-88.1395,0.0,3.33,1.404,-9999.0,'1111122,1111122,1111122' 
DISL,ioos:station:DISL:CATA:1,2011-12-01T08:30:00Z,30.3085,-88.1395,0.0,2.17,6.713,-9999.0,'1111122,1111122,1111122' 
DISL,ioos:station:DISL:CATA:1,2011-12-01T09:00:00Z,30.3085,-88.1395,0.0,2.51,18.06,-9999.0,'1111122,1111122,1111122' 
DISL,ioos:station:DISL:CATA:1,2011-12-01T09:30:00Z,30.3085,-88.1395,0.0,3.47,14.42,-9999.0,'1111122,1111122,1111122' 
DISL,ioos:station:DISL:CATA:1,2011-12-01T10:00:00Z,30.3085,-88.1395,0.0,4.26,28.16,-9999.0,'1111122,1111122,1111122' 
DISL,ioos:station:DISL:CATA:1,2011-12-01T10:30:00Z,30.3085,-88.1395,0.0,5.86,50.32,-9999.0,'1111122,1111122,1111122' 
DISL,ioos:station:DISL:CATA:1,2011-12-01T11:00:00Z,30.3085,-88.1395,0.0,5.96,59.04,-9999.0,'1111122,1111122,1111122' 
DISL,ioos:station:DISL:CATA:1,2011-12-01T11:30:00Z,30.3085,-88.1395,0.0,6.06,55.33,-9999.0,'1111122,1111122,1111122' 
DISL,ioos:station:DISL:CATA:1,2011-12-01T12:00:00Z,30.3085,-88.1395,0.0,5.75,58.2,-9999.0,'1111122,1111122,1111122' 
DISL,ioos:station:DISL:CATA:1,2011-12-01T12:30:00Z,30.3085,-88.1395,0.0,5.31,48.54,-9999.0,'1111122,1111122,1111122' 
DISL,ioos:station:DISL:CATA:1,2011-12-01T13:00:00Z,30.3085,-88.1395,0.0,3.26,40.46,-9999.0,'1111122,1111122,1111122' 
DISL,ioos:station:DISL:CATA:1,2011-12-01T13:30:00Z,30.3085,-88.1395,0.0,1.81,6.98,-9999.0,'1111122,1111122,1111122' 
DISL,ioos:station:DISL:CATA:1,2011-12-01T14:00:00Z,30.3085,-88.1395,0.0,2.8,353.5,-9999.0,'1111122,1111122,1111122' 
DISL,ioos:station:DISL:CATA:1,2011-12-01T14:30:00Z,30.3085,-88.1395,0.0,2.23,33.67,-9999.0,'1111122,1111122,1111122' 
DISL,ioos:station:DISL:CATA:1,2011-12-01T15:00:00Z,30.3085,-88.1395,0.0,4.56,60.13,-9999.0,'1111122,1111122,1111122' 
DISL,ioos:station:DISL:CATA:1,2011-12-01T15:30:00Z,30.3085,-88.1395,0.0,5.21,62.2,-9999.0,'1111122,1111122,1111122' 
DISL,ioos:station:DISL:CATA:1,2011-12-01T16:00:00Z,30.3085,-88.1395,0.0,4.48,56.6,-9999.0,'1111122,1111122,1111122' 
DISL,ioos:station:DISL:CATA:1,2011-12-01T16:30:00Z,30.3085,-88.1395,0.0,3.74,50.67,-9999.0,'1111122,1111122,1111122' 
DISL,ioos:station:DISL:CATA:1,2011-12-01T17:00:00Z,30.3085,-88.1395,0.0,3.53,50.59,-9999.0,'1111122,1111122,1111122' 
DISL,ioos:station:DISL:CATA:1,2011-12-01T17:30:00Z,30.3085,-88.1395,0.0,2.83,53.82,-9999.0,'1111122,1111122,1111122' 
DISL,ioos:station:DISL:CATA:1,2011-12-01T18:00:00Z,30.3085,-88.1395,0.0,2.85,52.56,-9999.0,'1111122,1111122,1111122' 
DISL,ioos:station:DISL:CATA:1,2011-12-01T18:30:00Z,30.3085,-88.1395,0.0,3.02,52.89,-9999.0,'1111122,1111122,1111122' 
DISL,ioos:station:DISL:CATA:1,2011-12-01T19:00:00Z,30.3085,-88.1395,0.0,2.31,55.12,-9999.0,'1111122,1111122,1111122' 
DISL,ioos:station:DISL:CATA:1,2011-12-01T19:30:00Z,30.3085,-88.1395,0.0,2.87,57.26,-9999.0,'1111122,1111122,1111122' 
DISL,ioos:station:DISL:CATA:1,2011-12-01T20:00:00Z,30.3085,-88.1395,0.0,2.9,49.56,-9999.0,'1111122,1111122,1111122' 
DISL,ioos:station:DISL:CATA:1,2011-12-01T20:30:00Z,30.3085,-88.1395,0.0,2.48,60.2,-9999.0,'1111122,1111122,1111122' 
DISL,ioos:station:DISL:CATA:1,2011-12-01T21:00:00Z,30.3085,-88.1395,0.0,2.72,47.9,-9999.0,'1111122,1111122,1111122' 
DISL,ioos:station:DISL:CATA:1,2011-12-01T21:30:00Z,30.3085,-88.1395,0.0,2.1,49.69,-9999.0,'1111122,1111122,1111122' 
DISL,ioos:station:DISL:CATA:1,2011-12-01T22:00:00Z,30.3085,-88.1395,0.0,2.5,14.44,-9999.0,'1111122,1111122,1111122' 
DISL,ioos:station:DISL:CATA:1,2011-12-01T22:30:00Z,30.3085,-88.1395,0.0,2.01,20.34,-9999.0,'1111122,1111122,1111122' 
DISL,ioos:station:DISL:CATA:1,2011-12-01T23:00:00Z,30.3085,-88.1395,0.0,2.26,17.21,-9999.0,'1111122,1111122,1111122' 
DISL,ioos:station:DISL:CATA:1,2011-12-01T23:30:00Z,30.3085,-88.1395,0.0,2.32,15.13,-9999.0,'1111122,1111122,1111122' 
DISL,ioos:station:DISL:CATA:1,2011-12-02T00:00:00Z,30.3085,-88.1395,0.0,2.01,351.5,-9999.0,'1111122,1111122,1111122' 
DISL,ioos:station:DISL:CATA:1,2011-12-02T00:30:00Z,30.3085,-88.1395,0.0,1.92,2.21,-9999.0,'1111122,1111122,1111122' 
DISL,ioos:station:DISL:CATA:1,2011-12-02T01:00:00Z,30.3085,-88.1395,0.0,2.3,329.9,-9999.0,'1111122,1111122,1111122' 
DISL,ioos:station:DISL:CATA:1,2011-12-02T01:30:00Z,30.3085,-88.1395,0.0,2.02,340.9,-9999.0,'1111122,1111122,1111122' 
DISL,ioos:station:DISL:CATA:1,2011-12-02T02:00:00Z,30.3085,-88.1395,0.0,2.41,37.82,-9999.0,'1111122,1111122,1111122' 
DISL,ioos:station:DISL:CATA:1,2011-12-02T02:30:00Z,30.3085,-88.1395,0.0,3.2,23.59,-9999.0,'1111122,1111122,1111122' 
DISL,ioos:station:DISL:CATA:1,2011-12-02T03:00:00Z,30.3085,-88.1395,0.0,2.15,30.26,-9999.0,'1111122,1111122,1111122' 
DISL,ioos:station:DISL:CATA:1,2011-12-02T03:30:00Z,30.3085,-88.1395,0.0,1.47,27.82,-9999.0,'1111122,1111122,1111122' 
DISL,ioos:station:DISL:CATA:1,2011-12-02T04:00:00Z,30.3085,-88.1395,0.0,1.62,24.95,-9999.0,'1111122,1111122,1111122' 
DISL,ioos:station:DISL:CATA:1,2011-12-02T04:30:00Z,30.3085,-88.1395,0.0,2.01,4.7,-9999.0,'1111122,1111122,1111122' 
DISL,ioos:station:DISL:CATA:1,2011-12-02T05:00:00Z,30.3085,-88.1395,0.0,2.8,38.52,-9999.0,'1111122,1111122,1111122' 
DISL,ioos:station:DISL:CATA:1,2011-12-02T05:30:00Z,30.3085,-88.1395,0.0,3.07,43.81,-9999.0,'1111122,1111122,1111122' 
DISL,ioos:station:DISL:CATA:1,2011-12-02T06:00:00Z,30.3085,-88.1395,0.0,3.7,61.0,-9999.0,'1111122,1111122,1111122' 
DISL,ioos:station:DISL:CATA:1,2011-12-02T06:30:00Z,30.3085,-88.1395,0.0,3.4,74.22,-9999.0,'1111122,1111122,1111122' 
DISL,ioos:station:DISL:CATA:1,2011-12-02T07:00:00Z,30.3085,-88.1395,0.0,4.35,82.8,-9999.0,'1111122,1111122,1111122' 
DISL,ioos:station:DISL:CATA:1,2011-12-02T07:30:00Z,30.3085,-88.1395,0.0,4.98,75.98,-9999.0,'1111122,1111122,1111122' 
DISL,ioos:station:DISL:CATA:1,2011-12-02T08:00:00Z,30.3085,-88.1395,0.0,4.44,71.87,-9999.0,'1111122,1111122,1111122' 
DISL,ioos:station:DISL:CATA:1,2011-12-02T08:30:00Z,30.3085,-88.1395,0.0,3.98,65.04,-9999.0,'1111122,1111122,1111122' 
DISL,ioos:station:DISL:CATA:1,2011-12-02T09:00:00Z,30.3085,-88.1395,0.0,5.31,74.5,-9999.0,'1111122,1111122,1111122' 
DISL,ioos:station:DISL:CATA:1,2011-12-02T09:30:00Z,30.3085,-88.1395,0.0,4.97,75.41,-9999.0,'1111122,1111122,1111122' 
DISL,ioos:station:DISL:CATA:1,2011-12-02T10:00:00Z,30.3085,-88.1395,0.0,4.89,76.13,-9999.0,'1111122,1111122,1111122' 
DISL,ioos:station:DISL:CATA:1,2011-12-02T10:30:00Z,30.3085,-88.1395,0.0,5.01,74.54,-9999.0,'1111122,1111122,1111122' 
DISL,ioos:station:DISL:CATA:1,2011-12-02T11:00:00Z,30.3085,-88.1395,0.0,5.0,71.34,-9999.0,'1111122,1111122,1111122' 
DISL,ioos:station:DISL:CATA:1,2011-12-02T11:30:00Z,30.3085,-88.1395,0.0,5.22,68.95,-9999.0,'1111122,1111122,1111122' 
DISL,ioos:station:DISL:CATA:1,2011-12-02T12:00:00Z,30.3085,-88.1395,0.0,4.83,59.49,-9999.0,'1111122,1111122,1111122' 
DISL,ioos:station:DISL:CATA:1,2011-12-02T12:30:00Z,30.3085,-88.1395,0.0,5.6,39.53,-9999.0,'1111122,1111122,1111122' 
DISL,ioos:station:DISL:CATA:1,2011-12-02T13:00:00Z,30.3085,-88.1395,0.0,3.99,16.3,-9999.0,'1111122,1111122,1111122' 
DISL,ioos:station:DISL:CATA:1,2011-12-02T13:30:00Z,30.3085,-88.1395,0.0,4.35,24.98,-9999.0,'1111122,1111122,1111122' 
DISL,ioos:station:DISL:CATA:1,2011-12-02T14:00:00Z,30.3085,-88.1395,0.0,5.18,28.25,-9999.0,'1111122,1111122,1111122' 
DISL,ioos:station:DISL:CATA:1,2011-12-02T14:30:00Z,30.3085,-88.1395,0.0,6.76,33.33,-9999.0,'1111122,1111122,1111122' 
DISL,ioos:station:DISL:CATA:1,2011-12-02T15:00:00Z,30.3085,-88.1395,0.0,7.16,39.34,-9999.0,'1111122,1111122,1111122' 
DISL,ioos:station:DISL:CATA:1,2011-12-02T15:30:00Z,30.3085,-88.1395,0.0,5.57,51.14,-9999.0,'1111122,1111122,1111122' 
DISL,ioos:station:DISL:CATA:1,2011-12-02T16:00:00Z,30.3085,-88.1395,0.0,4.91,47.86,-9999.0,'1111122,1111122,1111122' 
DISL,ioos:station:DISL:CATA:1,2011-12-02T16:30:00Z,30.3085,-88.1395,0.0,5.55,35.52,-9999.0,'1111122,1111122,1111122' 
DISL,ioos:station:DISL:CATA:1,2011-12-02T17:00:00Z,30.3085,-88.1395,0.0,5.62,39.45,-9999.0,'1111122,1111122,1111122' 
DISL,ioos:station:DISL:CATA:1,2011-12-02T17:30:00Z,30.3085,-88.1395,0.0,5.24,38.03,-9999.0,'1111122,1111122,1111122' 
DISL,ioos:station:DISL:CATA:1,2011-12-02T18:00:00Z,30.3085,-88.1395,0.0,5.22,38.38,-9999.0,'1111122,1111122,1111122' 
DISL,ioos:station:DISL:CATA:1,2011-12-02T18:30:00Z,30.3085,-88.1395,0.0,4.79,33.06,-9999.0,'1111122,1111122,1111122' 
DISL,ioos:station:DISL:CATA:1,2011-12-02T19:00:00Z,30.3085,-88.1395,0.0,4.49,35.02,-9999.0,'1111122,1111122,1111122' 
DISL,ioos:station:DISL:CATA:1,2011-12-02T19:30:00Z,30.3085,-88.1395,0.0,3.64,48.56,-9999.0,'1111122,1111122,1111122' 
DISL,ioos:station:DISL:CATA:1,2011-12-02T20:00:00Z,30.3085,-88.1395,0.0,3.65,42.98,-9999.0,'1111122,1111122,1111122' 
DISL,ioos:station:DISL:CATA:1,2011-12-02T20:30:00Z,30.3085,-88.1395,0.0,3.36,41.53,-9999.0,'1111122,1111122,1111122' 
DISL,ioos:station:DISL:CATA:1,2011-12-02T21:00:00Z,30.3085,-88.1395,0.0,2.73,58.82,-9999.0,'1111122,1111122,1111122' 
DISL,ioos:station:DISL:CATA:1,2011-12-02T21:30:00Z,30.3085,-88.1395,0.0,2.24,56.09,-9999.0,'1111122,1111122,1111122' 
DISL,ioos:station:DISL:CATA:1,2011-12-02T22:00:00Z,30.3085,-88.1395,0.0,2.06,61.49,-9999.0,'1111122,1111122,1111122' 
DISL,ioos:station:DISL:CATA:1,2011-12-02T22:30:00Z,30.3085,-88.1395,0.0,2.25,73.2,-9999.0,'1111122,1111122,1111122' 
DISL,ioos:station:DISL:CATA:1,2011-12-02T23:00:00Z,30.3085,-88.1395,0.0,1.79,72.53,-9999.0,'1111122,1111122,1111122' 
DISL,ioos:station:DISL:CATA:1,2011-12-02T23:30:00Z,30.3085,-88.1395,0.0,2.52,87.7,-9999.0,'1111122,1111122,1111122' 
DISL,ioos:station:DISL:CATA:1,2011-12-03T00:00:00Z,30.3085,-88.1395,0.0,2.73,112.6,-9999.0,'1111122,1111122,1111122' 
DISL,ioos:station:DISL:CATA:1,2011-12-03T00:30:00Z,30.3085,-88.1395,0.0,3.08,125.1,-9999.0,'1111122,1111122,1111122' 
DISL,ioos:station:DISL:CATA:1,2011-12-03T01:00:00Z,30.3085,-88.1395,0.0,3.3,120.1,-9999.0,'1111122,1111122,1111122' 
DISL,ioos:station:DISL:CATA:1,2011-12-03T01:30:00Z,30.3085,-88.1395,0.0,3.5,119.2,-9999.0,'1111122,1111122,1111122' 
DISL,ioos:station:DISL:CATA:1,2011-12-03T02:00:00Z,30.3085,-88.1395,0.0,2.65,108.7,-9999.0,'1111122,1111122,1111122' 
DISL,ioos:station:DISL:CATA:1,2011-12-03T02:30:00Z,30.3085,-88.1395,0.0,2.21,92.5,-9999.0,'1111122,1111122,1111122' 
DISL,ioos:station:DISL:CATA:1,2011-12-03T03:00:00Z,30.3085,-88.1395,0.0,2.69,79.19,-9999.0,'1111122,1111122,1111122' 
DISL,ioos:station:DISL:CATA:1,2011-12-03T03:30:00Z,30.3085,-88.1395,0.0,2.4,74.74,-9999.0,'1111122,1111122,1111122' 
DISL,ioos:station:DISL:CATA:1,2011-12-03T04:00:00Z,30.3085,-88.1395,0.0,2.55,70.69,-9999.0,'1111122,1111122,1111122' 
DISL,ioos:station:DISL:CATA:1,2011-12-03T04:30:00Z,30.3085,-88.1395,0.0,2.96,42.23,-9999.0,'1111122,1111122,1111122' 
DISL,ioos:station:DISL:CATA:1,2011-12-03T05:00:00Z,30.3085,-88.1395,0.0,3.72,45.2,-9999.0,'1111122,1111122,1111122' 
DISL,ioos:station:DISL:CATA:1,2011-12-03T05:30:00Z,30.3085,-88.1395,0.0,4.74,40.52,-9999.0,'1111122,1111122,1111122' 
DISL,ioos:station:DISL:CATA:1,2011-12-03T06:00:00Z,30.3085,-88.1395,0.0,4.7,40.33,-9999.0,'1111122,1111122,1111122' 
DISL,ioos:station:DISL:CATA:1,2011-12-03T06:30:00Z,30.3085,-88.1395,0.0,3.87,45.16,-9999.0,'1111122,1111122,1111122' 
DISL,ioos:station:DISL:CATA:1,2011-12-03T07:00:00Z,30.3085,-88.1395,0.0,3.85,59.9,-9999.0,'1111122,1111122,1111122' 
DISL,ioos:station:DISL:CATA:1,2011-12-03T07:30:00Z,30.3085,-88.1395,0.0,4.68,77.74,-9999.0,'1111122,1111122,1111122' 
DISL,ioos:station:DISL:CATA:1,2011-12-03T08:00:00Z,30.3085,-88.1395,0.0,4.82,81.4,-9999.0,'1111122,1111122,1111122' 
DISL,ioos:station:DISL:CATA:1,2011-12-03T08:30:00Z,30.3085,-88.1395,0.0,5.31,79.55,-9999.0,'1111122,1111122,1111122' 
DISL,ioos:station:DISL:CATA:1,2011-12-03T09:00:00Z,30.3085,-88.1395,0.0,5.22,77.64,-9999.0,'1111122,1111122,1111122' 
DISL,ioos:station:DISL:CATA:1,2011-12-03T09:30:00Z,30.3085,-88.1395,0.0,5.36,78.34,-9999.0,'1111122,1111122,1111122' 
DISL,ioos:station:DISL:CATA:1,2011-12-03T10:00:00Z,30.3085,-88.1395,0.0,5.19,83.5,-9999.0,'1111122,1111122,1111122' 
DISL,ioos:station:DISL:CATA:1,2011-12-03T10:30:00Z,30.3085,-88.1395,0.0,5.69,82.7,-9999.0,'1111122,1111122,1111122' 
DISL,ioos:station:DISL:CATA:1,2011-12-03T11:00:00Z,30.3085,-88.1395,0.0,5.28,76.98,-9999.0,'1111122,1111122,1111122' 
DISL,ioos:station:DISL:CATA:1,2011-12-03T11:30:00Z,30.3085,-88.1395,0.0,6.18,79.65,-9999.0,'1111122,1111122,1111122' 
DISL,ioos:station:DISL:CATA:1,2011-12-03T12:00:00Z,30.3085,-88.1395,0.0,6.32,81.1,-9999.0,'1111122,1111122,1111122' 
DISL,ioos:station:DISL:CATA:1,2011-12-03T12:30:00Z,30.3085,-88.1395,0.0,6.65,83.3,-9999.0,'1111122,1111122,1111122' 
DISL,ioos:station:DISL:CATA:1,2011-12-03T13:00:00Z,30.3085,-88.1395,0.0,7.66,84.5,-9999.0,'1111122,1111122,1111122' 
DISL,ioos:station:DISL:CATA:1,2011-12-03T13:30:00Z,30.3085,-88.1395,0.0,6.79,83.4,-9999.0,'1111122,1111122,1111122' 
DISL,ioos:station:DISL:CATA:1,2011-12-03T14:00:00Z,30.3085,-88.1395,0.0,6.91,83.5,-9999.0,'1111122,1111122,1111122' 
DISL,ioos:station:DISL:CATA:1,2011-12-03T14:30:00Z,30.3085,-88.1395,0.0,6.87,80.4,-9999.0,'1111122,1111122,1111122' 
DISL,ioos:station:DISL:CATA:1,2011-12-03T15:00:00Z,30.3085,-88.1395,0.0,5.95,75.26,-9999.0,'1111122,1111122,1111122' 
DISL,ioos:station:DISL:CATA:1,2011-12-03T15:30:00Z,30.3085,-88.1395,0.0,6.48,82.6,-9999.0,'1111122,1111122,1111122' 
DISL,ioos:station:DISL:CATA:1,2011-12-03T16:00:00Z,30.3085,-88.1395,0.0,6.73,84.1,-9999.0,'1111122,1111122,1111122' 
DISL,ioos:station:DISL:CATA:1,2011-12-03T16:30:00Z,30.3085,-88.1395,0.0,5.38,80.1,-9999.0,'1111122,1111122,1111122' 
DISL,ioos:station:DISL:CATA:1,2011-12-03T17:00:00Z,30.3085,-88.1395,0.0,4.65,77.16,-9999.0,'1111122,1111122,1111122' 
DISL,ioos:station:DISL:CATA:1,2011-12-03T17:30:00Z,30.3085,-88.1395,0.0,6.96,95.5,-9999.0,'1111122,1111122,1111122' 
DISL,ioos:station:DISL:CATA:1,2011-12-03T18:00:00Z,30.3085,-88.1395,0.0,6.49,95.3,-9999.0,'1111122,1111122,1111122' 
DISL,ioos:station:DISL:CATA:1,2011-12-03T18:30:00Z,30.3085,-88.1395,0.0,6.64,92.6,-9999.0,'1111122,1111122,1111122' 
DISL,ioos:station:DISL:CATA:1,2011-12-03T19:00:00Z,30.3085,-88.1395,0.0,7.46,95.0,-9999.0,'1111122,1111122,1111122' 
DISL,ioos:station:DISL:CATA:1,2011-12-03T19:30:00Z,30.3085,-88.1395,0.0,6.18,88.6,-9999.0,'1111122,1111122,1111122' 
DISL,ioos:station:DISL:CATA:1,2011-12-03T20:00:00Z,30.3085,-88.1395,0.0,6.91,97.9,-9999.0,'1111122,1111122,1111122' 
DISL,ioos:station:DISL:CATA:1,2011-12-03T20:30:00Z,30.3085,-88.1395,0.0,7.44,98.3,-9999.0,'1111122,1111122,1111122' 
DISL,ioos:station:DISL:CATA:1,2011-12-03T21:00:00Z,30.3085,-88.1395,0.0,6.99,95.9,-9999.0,'1111122,1111122,1111122' 
DISL,ioos:station:DISL:CATA:1,2011-12-03T21:30:00Z,30.3085,-88.1395,0.0,6.42,96.1,-9999.0,'1111122,1111122,1111122' 
DISL,ioos:station:DISL:CATA:1,2011-12-03T22:00:00Z,30.3085,-88.1395,0.0,6.9,101.3,-9999.0,'1111122,1111122,1111122' 
DISL,ioos:station:DISL:CATA:1,2011-12-03T22:30:00Z,30.3085,-88.1395,0.0,6.73,100.5,-9999.0,'1111122,1111122,1111122' 
DISL,ioos:station:DISL:CATA:1,2011-12-03T23:00:00Z,30.3085,-88.1395,0.0,6.97,101.1,-9999.0,'1111122,1111122,1111122' 
DISL,ioos:station:DISL:CATA:1,2011-12-03T23:30:00Z,30.3085,-88.1395,0.0,6.94,104.5,-9999.0,'1111122,1111122,1111122' 
DISL,ioos:station:DISL:CATA:1,2011-12-04T00:00:00Z,30.3085,-88.1395,0.0,6.49,103.2,-9999.0,'1111122,1111122,1111122' 
DISL,ioos:station:DISL:CATA:1,2011-12-04T00:30:00Z,30.3085,-88.1395,0.0,6.29,101.3,-9999.0,'1111122,1111122,1111122' 
DISL,ioos:station:DISL:CATA:1,2011-12-04T01:00:00Z,30.3085,-88.1395,0.0,6.22,96.9,-9999.0,'1111122,1111122,1111122' 
DISL,ioos:station:DISL:CATA:1,2011-12-04T01:30:00Z,30.3085,-88.1395,0.0,9.16,102.0,-9999.0,'1111122,1111122,1111122' 
DISL,ioos:station:DISL:CATA:1,2011-12-04T02:00:00Z,30.3085,-88.1395,0.0,7.56,98.3,-9999.0,'1111122,1111122,1111122' 
DISL,ioos:station:DISL:CATA:1,2011-12-04T02:30:00Z,30.3085,-88.1395,0.0,5.85,99.4,-9999.0,'1111122,1111122,1111122' 
DISL,ioos:station:DISL:CATA:1,2011-12-04T03:00:00Z,30.3085,-88.1395,0.0,5.19,93.9,-9999.0,'1111122,1111122,1111122' 
DISL,ioos:station:DISL:CATA:1,2011-12-04T03:30:00Z,30.3085,-88.1395,0.0,4.52,91.2,-9999.0,'1111122,1111122,1111122' 
DISL,ioos:station:DISL:CATA:1,2011-12-04T04:00:00Z,30.3085,-88.1395,0.0,4.98,85.3,-9999.0,'1111122,1111122,1111122' 
DISL,ioos:station:DISL:CATA:1,2011-12-04T04:30:00Z,30.3085,-88.1395,0.0,3.88,105.8,-9999.0,'1111122,1111122,1111122' 
DISL,ioos:station:DISL:CATA:1,2011-12-04T05:00:00Z,30.3085,-88.1395,0.0,4.48,107.7,-9999.0,'1111122,1111122,1111122' 
DISL,ioos:station:DISL:CATA:1,2011-12-04T05:30:00Z,30.3085,-88.1395,0.0,5.69,115.9,-9999.0,'1111122,1111122,1111122' 
DISL,ioos:station:DISL:CATA:1,2011-12-04T06:00:00Z,30.3085,-88.1395,0.0,4.09,116.2,-9999.0,'1111122,1111122,1111122' 
DISL,ioos:station:DISL:CATA:1,2011-12-04T06:30:00Z,30.3085,-88.1395,0.0,3.8,99.9,-9999.0,'1111122,1111122,1111122' 
DISL,ioos:station:DISL:CATA:1,2011-12-04T07:00:00Z,30.3085,-88.1395,0.0,4.68,76.38,-9999.0,'1111122,1111122,1111122' 
DISL,ioos:station:DISL:CATA:1,2011-12-04T07:30:00Z,30.3085,-88.1395,0.0,4.08,80.3,-9999.0,'1111122,1111122,1111122' 
DISL,ioos:station:DISL:CATA:1,2011-12-04T08:00:00Z,30.3085,-88.1395,0.0,5.03,89.3,-9999.0,'1111122,1111122,1111122' 
DISL,ioos:station:DISL:CATA:1,2011-12-04T08:30:00Z,30.3085,-88.1395,0.0,4.01,78.33,-9999.0,'1111122,1111122,1111122' 
DISL,ioos:station:DISL:CATA:1,2011-12-04T09:00:00Z,30.3085,-88.1395,0.0,5.02,108.7,-9999.0,'1111122,1111122,1111122' 
DISL,ioos:station:DISL:CATA:1,2011-12-04T09:30:00Z,30.3085,-88.1395,0.0,2.6,85.3,-9999.0,'1111122,1111122,1111122' 
DISL,ioos:station:DISL:CATA:1,2011-12-04T10:00:00Z,30.3085,-88.1395,0.0,2.27,78.42,-9999.0,'1111122,1111122,1111122' 
DISL,ioos:station:DISL:CATA:1,2011-12-04T10:30:00Z,30.3085,-88.1395,0.0,5.24,122.6,-9999.0,'1111122,1111122,1111122' 
DISL,ioos:station:DISL:CATA:1,2011-12-04T11:00:00Z,30.3085,-88.1395,0.0,3.99,95.1,-9999.0,'1111122,1111122,1111122' 
DISL,ioos:station:DISL:CATA:1,2011-12-04T11:30:00Z,30.3085,-88.1395,0.0,5.45,63.81,-9999.0,'1111122,1111122,1111122' 
DISL,ioos:station:DISL:CATA:1,2011-12-04T12:00:00Z,30.3085,-88.1395,0.0,6.84,81.1,-9999.0,'1111122,1111122,1111122' 
DISL,ioos:station:DISL:CATA:1,2011-12-04T12:30:00Z,30.3085,-88.1395,0.0,6.4,82.8,-9999.0,'1111122,1111122,1111122' 
DISL,ioos:station:DISL:CATA:1,2011-12-04T13:00:00Z,30.3085,-88.1395,0.0,6.3,85.0,-9999.0,'1111122,1111122,1111122' 
DISL,ioos:station:DISL:CATA:1,2011-12-04T13:30:00Z,30.3085,-88.1395,0.0,4.91,89.2,-9999.0,'1111122,1111122,1111122' 
DISL,ioos:station:DISL:CATA:1,2011-12-04T14:00:00Z,30.3085,-88.1395,0.0,5.21,95.4,-9999.0,'1111122,1111122,1111122' 
DISL,ioos:station:DISL:CATA:1,2011-12-04T14:30:00Z,30.3085,-88.1395,0.0,6.13,93.9,-9999.0,'1111122,1111122,1111122' 
DISL,ioos:station:DISL:CATA:1,2011-12-04T15:00:00Z,30.3085,-88.1395,0.0,5.95,94.2,-9999.0,'1111122,1111122,1111122' 
DISL,ioos:station:DISL:CATA:1,2011-12-04T15:30:00Z,30.3085,-88.1395,0.0,5.98,100.2,-9999.0,'1111122,1111122,1111122' 
DISL,ioos:station:DISL:CATA:1,2011-12-04T16:00:00Z,30.3085,-88.1395,0.0,5.89,97.2,-9999.0,'1111122,1111122,1111122' 
DISL,ioos:station:DISL:CATA:1,2011-12-04T16:30:00Z,30.3085,-88.1395,0.0,4.1,98.6,-9999.0,'1111122,1111122,1111122' 
DISL,ioos:station:DISL:CATA:1,2011-12-04T17:00:00Z,30.3085,-88.1395,0.0,4.92,106.4,-9999.0,'1111122,1111122,1111122' 
DISL,ioos:station:DISL:CATA:1,2011-12-04T17:30:00Z,30.3085,-88.1395,0.0,6.07,103.5,-9999.0,'1111122,1111122,1111122' 
DISL,ioos:station:DISL:CATA:1,2011-12-04T18:00:00Z,30.3085,-88.1395,0.0,6.2,109.0,-9999.0,'1111122,1111122,1111122' 
DISL,ioos:station:DISL:CATA:1,2011-12-04T18:30:00Z,30.3085,-88.1395,0.0,7.19,117.6,-9999.0,'1111122,1111122,1111122' 
DISL,ioos:station:DISL:CATA:1,2011-12-04T19:00:00Z,30.3085,-88.1395,0.0,7.92,122.9,-9999.0,'1111122,1111122,1111122' 
DISL,ioos:station:DISL:CATA:1,2011-12-04T19:30:00Z,30.3085,-88.1395,0.0,7.02,128.0,-9999.0,'1111122,1111122,1111122' 
DISL,ioos:station:DISL:CATA:1,2011-12-04T20:00:00Z,30.3085,-88.1395,0.0,6.56,125.0,-9999.0,'1111122,1111122,1111122' 
DISL,ioos:station:DISL:CATA:1,2011-12-04T20:30:00Z,30.3085,-88.1395,0.0,6.69,124.6,-9999.0,'1111122,1111122,1111122' 
DISL,ioos:station:DISL:CATA:1,2011-12-04T21:00:00Z,30.3085,-88.1395,0.0,5.9,121.8,-9999.0,'1111122,1111122,1111122' 
DISL,ioos:station:DISL:CATA:1,2011-12-04T21:30:00Z,30.3085,-88.1395,0.0,6.1,116.1,-9999.0,'1111122,1111122,1111122' 
DISL,ioos:station:DISL:CATA:1,2011-12-04T22:00:00Z,30.3085,-88.1395,0.0,5.72,121.0,-9999.0,'1111122,1111122,1111122' 
DISL,ioos:station:DISL:CATA:1,2011-12-04T22:30:00Z,30.3085,-88.1395,0.0,5.5,116.5,-9999.0,'1111122,1111122,1111122' 
DISL,ioos:station:DISL:CATA:1,2011-12-04T23:00:00Z,30.3085,-88.1395,0.0,6.26,116.1,-9999.0,'1111122,1111122,1111122' 
DISL,ioos:station:DISL:CATA:1,2011-12-04T23:30:00Z,30.3085,-88.1395,0.0,5.23,112.3,-9999.0,'1111122,1111122,1111122' 
DISL,ioos:station:DISL:CATA:1,2011-12-05T00:00:00Z,30.3085,-88.1395,0.0,4.06,108.6,-9999.0,'1111122,1111122,1111122' 
DISL,ioos:station:DISL:CATA:1,2011-12-05T00:30:00Z,30.3085,-88.1395,0.0,4.82,109.2,-9999.0,'1111122,1111122,1111122' 
DISL,ioos:station:DISL:CATA:1,2011-12-05T01:00:00Z,30.3085,-88.1395,0.0,2.31,89.7,-9999.0,'1111122,1111122,1111122' 
DISL,ioos:station:DISL:CATA:1,2011-12-05T01:30:00Z,30.3085,-88.1395,0.0,2.67,85.5,-9999.0,'1111122,1111122,1111122' 
DISL,ioos:station:DISL:CATA:1,2011-12-05T02:00:00Z,30.3085,-88.1395,0.0,3.23,68.1,-9999.0,'1111122,1111122,1111122' 
DISL,ioos:station:DISL:CATA:1,2011-12-05T02:30:00Z,30.3085,-88.1395,0.0,5.55,116.7,-9999.0,'1111122,1111122,1111122' 
DISL,ioos:station:DISL:CATA:1,2011-12-05T03:00:00Z,30.3085,-88.1395,0.0,5.89,121.2,-9999.0,'1111122,1111122,1111122' 
DISL,ioos:station:DISL:CATA:1,2011-12-05T03:30:00Z,30.3085,-88.1395,0.0,5.77,121.8,-9999.0,'1111122,1111122,1111122' 
DISL,ioos:station:DISL:CATA:1,2011-12-05T04:00:00Z,30.3085,-88.1395,0.0,5.37,122.4,-9999.0,'1111122,1111122,1111122' 
DISL,ioos:station:DISL:CATA:1,2011-12-05T04:30:00Z,30.3085,-88.1395,0.0,6.0,131.2,-9999.0,'1111122,1111122,1111122' 
DISL,ioos:station:DISL:CATA:1,2011-12-05T05:00:00Z,30.3085,-88.1395,0.0,5.35,133.6,-9999.0,'1111122,1111122,1111122' 